| time (UTC) | temp C | wind direction | speed KPH | gust KPH | rain 1hr cm | rain 24hr cm | rain mn cm | humidity % | barometer mb |
| 20260503021504 | 8 | 314 | 0.0 | 3.2 | 0.00 | 0.00 | 0.00 | 88 | 1019.6 |
| 20260503021006 | 8 | 0 | 0.0 | 0.0 | 0.00 | 0.00 | 0.00 | 88 | 1019.6 |
| 20260503020714 | 8 | 312 | 0.0 | 3.2 | 0.00 | 0.00 | 0.00 | 87 | 1019.6 |
| 20260503020005 | 8 | 311 | 0.0 | 3.2 | 0.00 | 0.00 | 0.00 | 87 | 1019.7 |
| 20260503015505 | 8 | 310 | 0.0 | 1.6 | 0.00 | 0.00 | 0.00 | 87 | 1019.7 |
| 20260503015004 | 8 | 310 | 0.0 | 3.2 | 0.00 | 0.00 | 0.00 | 87 | 1019.7 |
| 20260503014505 | 8 | 309 | 0.0 | 3.2 | 0.00 | 0.00 | 0.00 | 86 | 1019.7 |
| 20260503014004 | 8 | 306 | 1.6 | 3.2 | 0.00 | 0.00 | 0.00 | 87 | 1019.8 |
| 20260503013506 | 8 | 304 | 0.0 | 1.6 | 0.00 | 0.00 | 0.00 | 86 | 1019.8 |
| 20260503013005 | 8 | 301 | 0.0 | 1.6 | 0.00 | 0.00 | 0.00 | 86 | 1019.9 |
| 20260503012713 | 8 | 318 | 0.0 | 3.2 | 0.00 | 0.00 | 0.00 | 86 | 1019.9 |
| 20260503012006 | 8 | 317 | 1.6 | 3.2 | 0.00 | 0.00 | 0.00 | 86 | 1019.9 |
| 20260503011506 | 8 | 309 | 0.0 | 3.2 | 0.00 | 0.00 | 0.00 | 85 | 1020.0 |
| 20260503011217 | 8 | 307 | 0.0 | 1.6 | 0.00 | 0.00 | 0.00 | 85 | 1020.0 |
| 20260503010505 | 8 | 308 | 0.0 | 1.6 | 0.00 | 0.00 | 0.00 | 85 | 1020.0 |
| 20260503010005 | 8 | 310 | 0.0 | 1.6 | 0.00 | 0.00 | 0.00 | 86 | 1020.1 |
| 20260503005505 | 8 | 310 | 0.0 | 3.2 | 0.00 | 0.00 | 0.00 | 84 | 1020.1 |
| 20260503005004 | 8 | 312 | 1.6 | 3.2 | 0.00 | 0.00 | 0.00 | 86 | 1020.1 |
| 20260503004505 | 8 | 313 | 0.0 | 3.2 | 0.00 | 0.00 | 0.00 | 86 | 1020.1 |
| 20260503004215 | 8 | 313 | 0.0 | 1.6 | 0.00 | 0.00 | 0.00 | 86 | 1020.1 |
| 20260503003504 | 9 | 313 | 0.0 | 1.6 | 0.00 | 0.00 | 0.00 | 85 | 1020.0 |
| 20260503003216 | 9 | 313 | 0.0 | 1.6 | 0.00 | 0.00 | 0.00 | 84 | 1020.1 |
| 20260503002504 | 9 | 313 | 0.0 | 1.6 | 0.00 | 0.00 | 0.00 | 85 | 1020.2 |
| 20260503002217 | 9 | 313 | 0.0 | 1.6 | 0.00 | 0.00 | 0.00 | 84 | 1020.2 |
| 20260503001504 | 9 | 321 | 0.0 | 3.2 | 0.00 | 0.00 | 0.00 | 84 | 1020.2 |
| 20260503001004 | 9 | 321 | 0.0 | 3.2 | 0.00 | 0.00 | 0.00 | 84 | 1020.3 |
| 20260503000504 | 9 | 322 | 1.6 | 4.8 | 0.00 | 0.00 | 0.00 | 84 | 1020.3 |
| 20260503000006 | 10 | 320 | 1.6 | 4.8 | 0.00 | 0.00 | 0.00 | 84 | 1020.3 |
| 20260502235504 | 9 | 301 | 0.0 | 1.6 | 0.00 | 0.00 | 0.00 | 85 | 1020.4 |
| 20260502235004 | 9 | 301 | 0.0 | 1.6 | 0.00 | 0.00 | 0.00 | 84 | 1020.4 |
| 20260502234504 | 9 | 301 | 0.0 | 1.6 | 0.00 | 0.00 | 0.00 | 85 | 1020.4 |
| 20260502234006 | 9 | 300 | 0.0 | 1.6 | 0.00 | 0.00 | 0.00 | 85 | 1020.5 |
| 20260502233504 | 9 | 0 | 0.0 | 0.0 | 0.00 | 0.00 | 0.00 | 84 | 1020.5 |
| 20260502233217 | 10 | 0 | 0.0 | 0.0 | 0.00 | 0.00 | 0.00 | 83 | 1020.5 |
| 20260502232504 | 10 | 0 | 0.0 | 0.0 | 0.00 | 0.00 | 0.00 | 84 | 1020.6 |
| 20260502232006 | 10 | 307 | 0.0 | 1.6 | 0.00 | 0.00 | 0.00 | 83 | 1020.6 |
| 20260502231504 | 10 | 307 | 0.0 | 1.6 | 0.00 | 0.00 | 0.00 | 82 | 1020.6 |
| 20260502231007 | 10 | 0 | 0.0 | 0.0 | 0.00 | 0.00 | 0.00 | 82 | 1020.7 |
| 20260502230506 | 10 | 300 | 0.0 | 3.2 | 0.00 | 0.00 | 0.00 | 83 | 1020.8 |
| 20260502230006 | 10 | 267 | 0.0 | 3.2 | 0.00 | 0.00 | 0.00 | 83 | 1020.7 |
| 20260502225504 | 10 | 259 | 0.0 | 1.6 | 0.00 | 0.00 | 0.00 | 83 | 1020.7 |
| 20260502225006 | 10 | 264 | 0.0 | 1.6 | 0.00 | 0.00 | 0.00 | 84 | 1020.8 |
| 20260502224713 | 10 | 264 | 0.0 | 1.6 | 0.00 | 0.00 | 0.00 | 83 | 1020.9 |
| 20260502224004 | 10 | 239 | 0.0 | 3.2 | 0.00 | 0.00 | 0.00 | 84 | 1020.8 |
| 20260502223505 | 10 | 247 | 0.0 | 3.2 | 0.00 | 0.00 | 0.00 | 84 | 1020.8 |
| 20260502223217 | 10 | 293 | 0.0 | 1.6 | 0.00 | 0.00 | 0.00 | 83 | 1020.9 |
| 20260502222505 | 10 | 293 | 0.0 | 1.6 | 0.00 | 0.00 | 0.00 | 83 | 1021.0 |
| 20260502222004 | 10 | 0 | 0.0 | 0.0 | 0.00 | 0.00 | 0.00 | 82 | 1021.0 |
| 20260502221504 | 10 | 293 | 0.0 | 1.6 | 0.00 | 0.00 | 0.00 | 81 | 1021.0 |
| 20260502221214 | 10 | 293 | 0.0 | 1.6 | 0.00 | 0.00 | 0.00 | 81 | 1021.0 |
| 20260502220743 | 10 | 293 | 0.0 | 1.6 | 0.00 | 0.00 | 0.00 | 82 | 1021.0 |
| 20260502220504 | 10 | 293 | 0.0 | 1.6 | 0.00 | 0.00 | 0.00 | 82 | 1021.0 |
| 20260502215713 | 10 | 293 | 0.0 | 1.6 | 0.00 | 0.00 | 0.00 | 83 | 1021.1 |
| 20260502215004 | 10 | 293 | 0.0 | 1.6 | 0.00 | 0.00 | 0.00 | 83 | 1021.0 |
| 20260502214505 | 10 | 0 | 0.0 | 0.0 | 0.00 | 0.00 | 0.00 | 83 | 1021.1 |
| 20260502214004 | 10 | 0 | 0.0 | 0.0 | 0.00 | 0.00 | 0.00 | 83 | 1021.0 |
| 20260502213504 | 10 | 0 | 0.0 | 0.0 | 0.00 | 0.00 | 0.00 | 82 | 1021.0 |
| 20260502213004 | 10 | 60 | 0.0 | 1.6 | 0.00 | 0.00 | 0.00 | 82 | 1021.0 |
| 20260502212506 | 11 | 60 | 0.0 | 1.6 | 0.00 | 0.00 | 0.00 | 81 | 1021.0 |
| 20260502212004 | 11 | 60 | 0.0 | 1.6 | 0.00 | 0.00 | 0.00 | 80 | 1021.0 |
| 20260502211506 | 11 | 316 | 0.0 | 3.2 | 0.00 | 0.00 | 0.00 | 78 | 1021.1 |
| 20260502211006 | 11 | 313 | 1.6 | 3.2 | 0.00 | 0.00 | 0.00 | 78 | 1021.0 |
| 20260502210506 | 11 | 311 | 0.0 | 1.6 | 0.00 | 0.00 | 0.00 | 80 | 1021.1 |
| 20260502210006 | 11 | 306 | 0.0 | 1.6 | 0.00 | 0.00 | 0.00 | 80 | 1021.1 |
| 20260502205504 | 11 | 315 | 0.0 | 1.6 | 0.00 | 0.00 | 0.00 | 79 | 1021.2 |
| 20260502205005 | 11 | 298 | 0.0 | 1.6 | 0.00 | 0.00 | 0.00 | 78 | 1021.1 |
| 20260502204720 | 11 | 291 | 0.0 | 1.6 | 0.00 | 0.00 | 0.00 | 77 | 1021.1 |
| 20260502204004 | 12 | 291 | 0.0 | 1.6 | 0.00 | 0.00 | 0.00 | 77 | 1021.2 |
| 20260502203505 | 12 | 309 | 0.0 | 3.2 | 0.00 | 0.00 | 0.00 | 76 | 1021.2 |
| 20260502203214 | 12 | 310 | 1.6 | 3.2 | 0.00 | 0.00 | 0.00 | 75 | 1021.3 |
| 20260502202716 | 12 | 310 | 1.6 | 3.2 | 0.00 | 0.00 | 0.00 | 74 | 1021.2 |
| 20260502202004 | 13 | 307 | 1.6 | 4.8 | 0.00 | 0.00 | 0.00 | 73 | 1021.2 |
| 20260502201717 | 13 | 304 | 3.2 | 6.4 | 0.00 | 0.00 | 0.00 | 72 | 1021.2 |
| 20260502201004 | 13 | 297 | 1.6 | 6.4 | 0.00 | 0.00 | 0.00 | 73 | 1021.2 |
| 20260502200504 | 12 | 301 | 3.2 | 6.4 | 0.00 | 0.00 | 0.00 | 73 | 1021.1 |
| 20260502200216 | 13 | 301 | 3.2 | 6.4 | 0.00 | 0.00 | 0.00 | 73 | 1021.2 |
| 20260502195504 | 12 | 310 | 1.6 | 6.4 | 0.00 | 0.00 | 0.00 | 75 | 1021.1 |
| 20260502195004 | 12 | 316 | 3.2 | 6.4 | 0.00 | 0.00 | 0.00 | 74 | 1021.1 |
| 20260502194505 | 12 | 317 | 3.2 | 4.8 | 0.00 | 0.00 | 0.00 | 74 | 1021.0 |
| 20260502194004 | 13 | 313 | 1.6 | 4.8 | 0.00 | 0.00 | 0.00 | 74 | 1021.0 |
| 20260502193716 | 13 | 315 | 3.2 | 4.8 | 0.00 | 0.00 | 0.00 | 73 | 1021.0 |
| 20260502193005 | 12 | 309 | 1.6 | 4.8 | 0.00 | 0.00 | 0.00 | 75 | 1021.0 |
| 20260502192505 | 13 | 301 | 1.6 | 4.8 | 0.00 | 0.00 | 0.00 | 74 | 1020.9 |
| 20260502192005 | 13 | 305 | 1.6 | 4.8 | 0.00 | 0.00 | 0.00 | 72 | 1020.8 |
| 20260502191504 | 13 | 308 | 3.2 | 6.4 | 0.00 | 0.00 | 0.00 | 71 | 1020.7 |
| 20260502191004 | 13 | 311 | 3.2 | 6.4 | 0.00 | 0.00 | 0.00 | 71 | 1020.7 |
| 20260502190714 | 13 | 307 | 3.2 | 8.0 | 0.00 | 0.00 | 0.00 | 70 | 1020.7 |
| 20260502190217 | 14 | 305 | 3.2 | 8.0 | 0.00 | 0.00 | 0.00 | 70 | 1020.8 |
| 20260502185504 | 13 | 308 | 1.6 | 4.8 | 0.00 | 0.00 | 0.00 | 72 | 1020.7 |
| 20260502185218 | 13 | 308 | 1.6 | 4.8 | 0.00 | 0.00 | 0.00 | 72 | 1020.8 |
| 20260502184504 | 13 | 303 | 1.6 | 3.2 | 0.00 | 0.00 | 0.00 | 74 | 1020.8 |
| 20260502184004 | 13 | 297 | 1.6 | 3.2 | 0.00 | 0.00 | 0.00 | 72 | 1020.8 |
| 20260502183505 | 14 | 297 | 3.2 | 6.4 | 0.00 | 0.00 | 0.00 | 70 | 1020.7 |
| 20260502183004 | 14 | 298 | 3.2 | 6.4 | 0.00 | 0.00 | 0.00 | 68 | 1020.7 |
| 20260502182506 | 14 | 293 | 1.6 | 4.8 | 0.00 | 0.00 | 0.00 | 70 | 1020.6 |
| 20260502182005 | 14 | 290 | 1.6 | 3.2 | 0.00 | 0.00 | 0.00 | 70 | 1020.6 |
| 20260502181506 | 14 | 292 | 0.0 | 3.2 | 0.00 | 0.00 | 0.00 | 70 | 1020.6 |
| 20260502181217 | 14 | 289 | 0.0 | 3.2 | 0.00 | 0.00 | 0.00 | 70 | 1020.6 |
| 20260502180505 | 14 | 293 | 0.0 | 3.2 | 0.00 | 0.00 | 0.00 | 70 | 1020.4 |
| 20260502170506 | 17 | 298 | 3.2 | 4.8 | 0.00 | 0.00 | 0.00 | 59 | 1020.4 |
| 20260502164005 | 21 | 233 | 1.6 | 4.8 | 0.00 | 0.00 | 0.00 | 49 | 1020.4 |
| 20260502163504 | 22 | 230 | 0.0 | 4.8 | 0.00 | 0.00 | 0.00 | 45 | 1020.5 |
| 20260502163216 | 23 | 194 | 0.0 | 1.6 | 0.00 | 0.00 | 0.00 | 46 | 1020.5 |
| 20260502162714 | 22 | 159 | 0.0 | 1.6 | 0.00 | 0.00 | 0.00 | 43 | 1020.5 |
| 20260502162004 | 22 | 144 | 1.6 | 3.2 | 0.00 | 0.00 | 0.00 | 42 | 1020.6 |
| 20260502161504 | 22 | 122 | 1.6 | 4.8 | 0.00 | 0.00 | 0.00 | 42 | 1020.5 |
| 20260502161006 | 22 | 112 | 1.6 | 6.4 | 0.00 | 0.00 | 0.00 | 43 | 1020.6 |
| 20260502160716 | 22 | 116 | 1.6 | 6.4 | 0.00 | 0.00 | 0.00 | 43 | 1020.6 |
| 20260502152218 | 23 | 110 | 3.2 | 9.7 | 0.00 | 0.00 | 0.00 | 42 | 1020.8 |
| 20260502151505 | 22 | 116 | 3.2 | 11.3 | 0.00 | 0.00 | 0.00 | 38 | 1020.9 |
| 20260502151006 | 23 | 98 | 3.2 | 9.7 | 0.00 | 0.00 | 0.00 | 41 | 1020.9 |
| 20260502150504 | 22 | 98 | 3.2 | 12.9 | 0.00 | 0.00 | 0.00 | 40 | 1021.0 |
| 20260502130504 | 22 | 102 | 6.4 | 14.5 | 0.00 | 0.00 | 0.00 | 40 | 1021.9 |
| 20260502123504 | 22 | 134 | 6.4 | 12.9 | 0.00 | 0.00 | 0.00 | 39 | 1022.3 |
| 20260502123004 | 22 | 148 | 3.2 | 8.0 | 0.00 | 0.00 | 0.00 | 39 | 1022.3 |
| 20260502122506 | 22 | 101 | 3.2 | 8.0 | 0.00 | 0.00 | 0.00 | 38 | 1022.4 |
| 20260502122006 | 22 | 83 | 3.2 | 9.7 | 0.00 | 0.00 | 0.00 | 39 | 1022.4 |
| 20260502121506 | 22 | 103 | 4.8 | 11.3 | 0.00 | 0.00 | 0.00 | 40 | 1022.4 |
| 20260502121005 | 22 | 138 | 4.8 | 12.9 | 0.00 | 0.00 | 0.00 | 41 | 1022.5 |
| 20260502120713 | 22 | 159 | 6.4 | 12.9 | 0.00 | 0.00 | 0.00 | 41 | 1022.5 |
| 20260502115504 | 22 | 100 | 4.8 | 16.1 | 0.00 | 0.00 | 0.00 | 41 | 1022.6 |
| 20260502115004 | 22 | 107 | 6.4 | 16.1 | 0.00 | 0.00 | 0.00 | 43 | 1022.7 |
| 20260502114504 | 22 | 104 | 6.4 | 12.9 | 0.00 | 0.00 | 0.00 | 43 | 1022.8 |
| 20260502114005 | 21 | 112 | 6.4 | 12.9 | 0.00 | 0.00 | 0.00 | 43 | 1022.8 |
| 20260502113504 | 21 | 118 | 4.8 | 12.9 | 0.00 | 0.00 | 0.00 | 44 | 1022.8 |
| 20260502113006 | 21 | 123 | 6.4 | 16.1 | 0.00 | 0.00 | 0.00 | 43 | 1022.9 |
| 20260502112505 | 21 | 129 | 6.4 | 16.1 | 0.00 | 0.00 | 0.00 | 43 | 1022.9 |
| 20260502112006 | 21 | 133 | 4.8 | 11.3 | 0.00 | 0.00 | 0.00 | 45 | 1023.0 |
| 20260502111504 | 21 | 96 | 6.4 | 12.9 | 0.00 | 0.00 | 0.00 | 46 | 1023.1 |
| 20260502111004 | 21 | 89 | 6.4 | 12.9 | 0.00 | 0.00 | 0.00 | 43 | 1023.1 |
| 20260502110504 | 21 | 105 | 4.8 | 11.3 | 0.00 | 0.00 | 0.00 | 49 | 1023.2 |
| 20260502110007 | 21 | 89 | 4.8 | 11.3 | 0.00 | 0.00 | 0.00 | 45 | 1023.4 |
| 20260502105504 | 21 | 94 | 4.8 | 12.9 | 0.00 | 0.00 | 0.00 | 45 | 1023.4 |
| 20260502105004 | 21 | 105 | 4.8 | 12.9 | 0.00 | 0.00 | 0.00 | 48 | 1023.5 |
| 20260502104505 | 21 | 104 | 4.8 | 11.3 | 0.00 | 0.00 | 0.00 | 44 | 1023.7 |
| 20260502104006 | 20 | 93 | 6.4 | 14.5 | 0.00 | 0.00 | 0.00 | 45 | 1023.7 |
| 20260502103504 | 20 | 84 | 3.2 | 14.5 | 0.00 | 0.00 | 0.00 | 45 | 1023.7 |
| 20260502103006 | 20 | 82 | 3.2 | 8.0 | 0.00 | 0.00 | 0.00 | 45 | 1023.9 |
| 20260502102504 | 20 | 76 | 6.4 | 16.1 | 0.00 | 0.00 | 0.00 | 45 | 1023.8 |
| 20260502102004 | 20 | 80 | 6.4 | 16.1 | 0.00 | 0.00 | 0.00 | 48 | 1023.9 |
| 20260502101507 | 20 | 79 | 3.2 | 12.9 | 0.00 | 0.00 | 0.00 | 48 | 1024.0 |
| 20260502101004 | 20 | 73 | 3.2 | 12.9 | 0.00 | 0.00 | 0.00 | 49 | 1024.1 |
| 20260502100504 | 20 | 75 | 4.8 | 12.9 | 0.00 | 0.00 | 0.00 | 49 | 1024.2 |
| 20260502091504 | 18 | 90 | 4.8 | 9.7 | 0.00 | 0.00 | 0.00 | 52 | 1024.8 |
| 20260502091004 | 18 | 100 | 3.2 | 8.0 | 0.00 | 0.00 | 0.00 | 50 | 1024.8 |
| 20260502090505 | 18 | 93 | 3.2 | 9.7 | 0.00 | 0.00 | 0.00 | 53 | 1024.9 |
| 20260502071504 | 14 | 120 | 3.2 | 6.4 | 0.00 | 0.00 | 0.00 | 63 | 1025.6 |
| 20260502071218 | 14 | 106 | 3.2 | 6.4 | 0.00 | 0.00 | 0.00 | 62 | 1025.7 |
| 20260502070504 | 14 | 103 | 1.6 | 4.8 | 0.00 | 0.00 | 0.00 | 62 | 1025.7 |
| 20260502070006 | 13 | 99 | 1.6 | 4.8 | 0.00 | 0.00 | 0.00 | 62 | 1025.7 |
| 20260502065506 | 13 | 88 | 3.2 | 4.8 | 0.00 | 0.00 | 0.00 | 63 | 1025.7 |
| 20260502065004 | 13 | 96 | 3.2 | 6.4 | 0.00 | 0.00 | 0.00 | 64 | 1025.8 |
| 20260502064504 | 13 | 111 | 3.2 | 6.4 | 0.00 | 0.00 | 0.00 | 64 | 1025.7 |
| 20260502064006 | 13 | 90 | 1.6 | 4.8 | 0.00 | 0.00 | 0.00 | 63 | 1025.7 |
| 20260502063504 | 14 | 38 | 1.6 | 3.2 | 0.00 | 0.00 | 0.00 | 65 | 1025.8 |
| 20260502063005 | 15 | 16 | 0.0 | 3.2 | 0.00 | 0.00 | 0.00 | 66 | 1025.8 |
| 20260502062505 | 14 | 9 | 0.0 | 1.6 | 0.00 | 0.00 | 0.00 | 68 | 1025.8 |
| 20260502062005 | 13 | 12 | 0.0 | 1.6 | 0.00 | 0.00 | 0.00 | 68 | 1025.9 |
| 20260502061505 | 13 | 5 | 0.0 | 1.6 | 0.00 | 0.00 | 0.00 | 72 | 1026.0 |
| 20260502061004 | 13 | 353 | 0.0 | 1.6 | 0.00 | 0.00 | 0.00 | 71 | 1026.0 |
| 20260502060506 | 13 | 282 | 0.0 | 1.6 | 0.00 | 0.00 | 0.00 | 71 | 1026.1 |
| 20260502060005 | 13 | 282 | 0.0 | 1.6 | 0.00 | 0.00 | 0.00 | 71 | 1026.0 |
| 20260502055504 | 13 | 0 | 0.0 | 0.0 | 0.00 | 0.00 | 0.00 | 72 | 1026.0 |
| 20260502055216 | 12 | 0 | 0.0 | 0.0 | 0.00 | 0.00 | 0.00 | 72 | 1026.0 |
| 20260502054504 | 12 | 0 | 0.0 | 0.0 | 0.00 | 0.00 | 0.00 | 75 | 1026.0 |
| 20260502054006 | 11 | 0 | 0.0 | 0.0 | 0.00 | 0.00 | 0.00 | 79 | 1026.0 |
| 20260502053715 | 10 | 0 | 0.0 | 0.0 | 0.00 | 0.00 | 0.00 | 80 | 1026.1 |
| 20260502053004 | 10 | 0 | 0.0 | 0.0 | 0.00 | 0.00 | 0.00 | 81 | 1026.0 |
| 20260502052504 | 9 | 0 | 0.0 | 0.0 | 0.00 | 0.00 | 0.00 | 85 | 1026.1 |
| 20260502052004 | 8 | 0 | 0.0 | 0.0 | 0.00 | 0.00 | 0.00 | 87 | 1026.0 |
| 20260502051506 | 7 | 259 | 0.0 | 1.6 | 0.00 | 0.00 | 0.00 | 87 | 1026.1 |
| 20260502051004 | 7 | 259 | 0.0 | 1.6 | 0.00 | 0.00 | 0.00 | 89 | 1026.1 |
| 20260502050504 | 6 | 259 | 0.0 | 1.6 | 0.00 | 0.00 | 0.00 | 90 | 1026.1 |
| 20260502050006 | 6 | 259 | 0.0 | 1.6 | 0.00 | 0.00 | 0.00 | 91 | 1026.1 |
| 20260502045004 | 5 | 259 | 0.0 | 1.6 | 0.00 | 0.00 | 0.00 | 91 | 1026.0 |
| 20260502044504 | 5 | 259 | 0.0 | 1.6 | 0.00 | 0.00 | 0.00 | 91 | 1025.9 |
| 20260502044004 | 5 | 259 | 0.0 | 1.6 | 0.00 | 0.00 | 0.00 | 91 | 1026.0 |
| 20260502043504 | 5 | 259 | 0.0 | 1.6 | 0.00 | 0.00 | 0.00 | 91 | 1025.9 |
| 20260502043005 | 5 | 0 | 0.0 | 0.0 | 0.00 | 0.00 | 0.00 | 90 | 1026.0 |
| 20260502042504 | 5 | 251 | 0.0 | 1.6 | 0.00 | 0.00 | 0.00 | 91 | 1026.0 |
| 20260502042004 | 5 | 251 | 0.0 | 1.6 | 0.00 | 0.00 | 0.00 | 91 | 1025.8 |
| 20260502041505 | 5 | 238 | 0.0 | 1.6 | 0.00 | 0.00 | 0.00 | 90 | 1025.9 |
| 20260502041004 | 5 | 239 | 0.0 | 1.6 | 0.00 | 0.00 | 0.00 | 90 | 1025.9 |
| 20260502040505 | 5 | 244 | 0.0 | 1.6 | 0.00 | 0.00 | 0.00 | 90 | 1026.0 |
| 20260502040006 | 5 | 250 | 0.0 | 1.6 | 0.00 | 0.00 | 0.00 | 90 | 1025.8 |
| 20260502035504 | 5 | 250 | 0.0 | 1.6 | 0.00 | 0.00 | 0.00 | 90 | 1025.8 |
| 20260502035004 | 5 | 250 | 0.0 | 1.6 | 0.00 | 0.00 | 0.00 | 90 | 1025.7 |
| 20260502034504 | 5 | 250 | 0.0 | 1.6 | 0.00 | 0.00 | 0.00 | 91 | 1025.8 |
| 20260502034006 | 5 | 250 | 0.0 | 1.6 | 0.00 | 0.00 | 0.00 | 91 | 1025.8 |
| 20260502033504 | 5 | 250 | 0.0 | 1.6 | 0.00 | 0.00 | 0.00 | 91 | 1025.9 |
| 20260502033004 | 5 | 250 | 0.0 | 1.6 | 0.00 | 0.00 | 0.00 | 91 | 1025.8 |
| 20260502032503 | 5 | 250 | 0.0 | 1.6 | 0.00 | 0.00 | 0.00 | 91 | 1025.8 |
| 20260502032004 | 5 | 0 | 0.0 | 0.0 | 0.00 | 0.00 | 0.00 | 91 | 1025.8 |
| 20260502031504 | 5 | 230 | 0.0 | 1.6 | 0.00 | 0.00 | 0.00 | 90 | 1025.9 |
| 20260502031005 | 5 | 230 | 0.0 | 1.6 | 0.00 | 0.00 | 0.00 | 90 | 1025.8 |
| 20260502030504 | 5 | 0 | 0.0 | 0.0 | 0.00 | 0.00 | 0.00 | 90 | 1025.9 |
| 20260502030007 | 5 | 0 | 0.0 | 0.0 | 0.00 | 0.00 | 0.00 | 90 | 1025.9 |
| 20260502025506 | 5 | 238 | 0.0 | 1.6 | 0.00 | 0.00 | 0.00 | 90 | 1026.0 |
| 20260502025005 | 5 | 242 | 0.0 | 1.6 | 0.00 | 0.00 | 0.00 | 90 | 1026.0 |
| 20260502024504 | 5 | 263 | 0.0 | 1.6 | 0.00 | 0.00 | 0.00 | 90 | 1026.0 |
| 20260502024006 | 5 | 312 | 0.0 | 1.6 | 0.00 | 0.00 | 0.00 | 89 | 1026.0 |
| 20260502023504 | 5 | 0 | 0.0 | 0.0 | 0.00 | 0.00 | 0.00 | 89 | 1026.0 |
| 20260502023004 | 5 | 0 | 0.0 | 0.0 | 0.00 | 0.00 | 0.00 | 88 | 1025.9 |
| 20260502022504 | 5 | 0 | 0.0 | 0.0 | 0.00 | 0.00 | 0.00 | 88 | 1026.0 |
| 20260502022006 | 5 | 0 | 0.0 | 0.0 | 0.00 | 0.00 | 0.00 | 88 | 1026.0 |